Погода в Кличеве

Беларусь     53°29′22″N   29°20′30″E
темп.,
°C
ветер,
м/с
пор.,
м/с
влажн.,
%
обл.,
%
осадки,
мм/ч
давл.,
гПа
погр.,
м
19 апреля, пн
пн1900:00+8всв3982100 0.0 1020532
03:00+5св410883 0.0 1020389
06:00+4св38945 0.0 1020213
09:00+7всв567623 0.0 1020587
12:00+11всв455776 0.0 10201418
15:00+12св455881 0.1 10191289
18:00+11всв586787 0.6 1019926
21:00+7св4108572 0.7 1019373
20 апреля, вт
вт2000:00+7св3887100 0.1 1018438
03:00+5св31092100 0.1 1017304
06:00+4св41092100 0.0 1016339
09:00+6св4884100 0.0 1016674
12:00+6св4682100 0.1 1015939
15:00+7ссв4579100 0.2 1014815
18:00+6ссв468276 0.1 1012695
21:00+5ссв3588100 0.1 1012435
21 апреля, ср
ср2100:00+4ссз248998 0.0 1010368
03:00+4ссз2490100 0.1 1010319
06:00+4зсз2589100 0.0 1009218
09:00+6з457295 0.0 1009634
12:00+7юз568595 0.1 1008672
15:00+13з584698 0.7 10072222
18:00+12зсз365083 0.0 10081644
21:00+7вюв1164100 0.0 100912
22 апреля, чт
чт2200:00+6ююз368490 0.0 1009111
03:00+5ююз339246 0.0 101057
06:00+5ююз259099 0.0 101096
09:00+9ююз4679100 0.0 1011372
12:00+14юз68575 0.9 10111494
15:00+15зюз584498 1.2 10112360
18:00+14зюз36539 0.0 10121276
21:00+9з117596 0.0 101310
23 апреля, пт
пт2300:00+7юв228082 0.0 101229
03:00+6ююз229386 0.2 101137
06:00+3зсз4996100 1.3 1012363
09:00+4зюз3584100 1.8 1013623
12:00+6ююз4674100 0.9 1012992
15:00+8юз7106999 1.7 10121375
18:00+8зюз610605 0.4 10111555
21:00+4юз39795 0.4 1012248